Observations for Trim Patrick St
| Time | AQI | Temp °C | Hum % | Pres Pa | CO μg/m³ | H₂S μg/m³ | NO μg/m³ | NO₂ μg/m³ | O₃ μg/m³ | SO₂ μg/m³ | PM1 μg/m³ | PM2.5 μg/m³ | PM10 μg/m³ |
|---|---|---|---|---|---|---|---|---|---|---|---|---|---|
| Monday 3 August 2026 | |||||||||||||
| 09:28 | 2 | 22.7 | 63 | 79,129 | 0 | 0 | 1.96 | 8.02 | 53.33 | 3.92 | 5.43 | 9.29 | 10.22 |
| 09:27 | 2 | 22.8 | 63 | 79,255 | 0 | 0 | 1.71 | 7.89 | 49.52 | 3.25 | 5.43 | 10.03 | 11.03 |
| 09:26 | 2 | 22.8 | 63 | 79,394 | 0.01 | 0 | 2.12 | 9.36 | 50.1 | 5.03 | 5.43 | 10.01 | 11.01 |
| 09:25 | 2 | 22.8 | 62 | 79,445 | 0.04 | 0 | 2.06 | 9.02 | 51.86 | 4.59 | 6.29 | 11.54 | 12.69 |
| 09:23 | 2 | 22.9 | 63 | 79,670 | 0.05 | 0 | 2.29 | 8.4 | 49.03 | 3.29 | 5.43 | 10 | 11 |
| 09:22 | 2 | 22.9 | 63 | 80,071 | 0.05 | 0 | 2.68 | 8.56 | 47.23 | 3.6 | 4.57 | 10.01 | 11.01 |
| 09:21 | 2 | 22.9 | 63 | 80,502 | 0.07 | 0 | 3.13 | 8.04 | 48.6 | 3.72 | 5.43 | 11.5 | 12.65 |
| 09:20 | 2 | 22.9 | 63 | 80,978 | 0.08 | 0 | 3.2 | 11.49 | 41.15 | 4.28 | 6.29 | 12.19 | 13.41 |
| 09:19 | 2 | 22.9 | 64 | 81,286 | 0.09 | 0 | 3.23 | 11.37 | 40.47 | 4.02 | 5.43 | 10.7 | 11.77 |
| 09:18 | 2 | 22.9 | 63 | 81,695 | 0.11 | 0 | 3.29 | 14.31 | 36.34 | 4.87 | 7.14 | 12.93 | 14.66 |
| 09:17 | 2 | 22.8 | 64 | 82,152 | 0.1 | 0 | 3.31 | 12.29 | 39.46 | 4.74 | 5.43 | 11.43 | 12.58 |
| 09:16 | 2 | 22.8 | 63 | 82,575 | 0.09 | 0 | 2.99 | 12.04 | 42.56 | 4.75 | 7.14 | 11.45 | 12.59 |
| 09:15 | 2 | 22.8 | 64 | 82,933 | 0.1 | 0 | 3.13 | 11.39 | 41.87 | 4.51 | 4.57 | 10.66 | 11.73 |
| 09:14 | 2 | 22.7 | 63 | 83,603 | 0.09 | 0 | 3.04 | 11.98 | 43.98 | 4.19 | 4.57 | 9.24 | 10.17 |
| 09:13 | 2 | 22.7 | 64 | 84,345 | 0.08 | 0 | 2.71 | 10.75 | 41.85 | 4.03 | 4.57 | 9.94 | 10.93 |
| 09:12 | 2 | 22.7 | 64 | 85,526 | 0.09 | 0 | 2.75 | 10.33 | 44.33 | 3.61 | 4.57 | 9.94 | 10.93 |
| 09:11 | 2 | 22.6 | 64 | 87,010 | 0.09 | 0 | 2.9 | 12.94 | 39.59 | 3.76 | 4.57 | 9.95 | 10.94 |
| 09:09 | 2 | 22.5 | 65 | 90,698 | 0.14 | 0 | 2.96 | 14.81 | 39.1 | 4.62 | 6.29 | 10.56 | 11.61 |
| 09:08 | 2 | 22.4 | 64 | 92,464 | 0.1 | 0 | 3.33 | 13.85 | 38.47 | 4.15 | 5.43 | 10.64 | 11.71 |
| 09:05 | 2 | 22.2 | 66 | 97,752 | 0.09 | 0 | 2.99 | 9.81 | 44.87 | 2.48 | 5.43 | 9.06 | 9.97 |